Location: Christchurch
(43.5330°S, 172.6330°E)
Time: 19:01:21
(UTC+13:00)

Cosmos 2181 Rocket - Pass Details

Date: 24 January 2019
Orbit: 952 x 1015 km, 82.9° (Epoch: 15 February)

Event Time Altitude Azimuth Distance (km) Brightness Sun altitude
Rises 23:28:59 0° 185° (S) 3,675 8.1 -20.3°
Reaches altitude 10° 23:31:34 10° 180° (S) 2,727 7.1 -20.5°
Maximum altitude 23:37:41 55° 102° (ESE) 1,160 4.2 -21.1°
Enters shadow 23:39:47 39° 47° (NE) 1,438 4.4 -21.3°
